Flag for Norway Weather past 2 weeks in Kvernaland, Norway

48 °F

Light rain. Passing clouds.

Feels Like: 48 °F
Forecast: 49 / 55 °F
Wind: 1 mph from Northwest

Location: Stavanger / Sola

Current Time: Oct 9, 2015 at 2:01:07 AM

Latest Report: Oct 9, 2015 at 1:00 AM

Visibility: 9 mi

Pressure: 30.19 "Hg

Humidity: 92%

Dew point: 46 °F

Location of KvernalandLocation

Historic Weather in Kvernaland — Graph


Kvernaland temperature yesterday

Maximum temperature yesterday: 55 °F (at 3:00 PM)
Minimum temperature yesterday: 49 °F (at 11:00 PM)
Average temperature yesterday: 52 °F

Past Weeks' High & Low Weather Summary

High62 °F (Oct 5, 2:00 PM)98% (Sep 28, 8:00 AM)30.71 "Hg (Sep 28, 8:00 AM)
Low41 °F (Oct 5, 6:00 AM)48% (Oct 6, 4:00 PM)29.61 "Hg (Sep 24, 4:00 PM)
Average54 °F77%30.18 "Hg
* Reported Midnight between Sep 23 and Sep 24 — Midnight between Oct 8 and Oct 9, Kvernaland, Weather by CustomWeather, © 2015

Note: Actual official high and low records may vary slightly from our data, if they occured in-between our weather recording intervals... More about our weather records


Kvernaland weather history for previous 24 hours

Time TempWeatherWind HumidityBarometerVisibility
12:00 AM
Fri, Oct 9
48 °FLight rain. Overcast.1 mph93%30.19 "Hg7 mi
11:00 PM
Thu, Oct 8
49 °FPassing clouds.1 mph91%30.17 "Hg6 mi
10:00 PM49 °FRain. Overcast.1 mph90%30.16 "Hg7 mi
9:00 PM50 °FRain. Passing clouds.2 mph85%30.13 "Hg13 mi
8:00 PM50 °FRain showers. Overcast.2 mph80%30.12 "Hg28 mi
7:00 PM51 °FLots of rain. Overcast.1 mph74%30.10 "Hg7 mi
6:00 PM53 °FRain showers. Overcast.5 mph63%30.08 "Hg28 mi
5:00 PM54 °FOvercast.6 mph63%30.07 "Hg31 mi
4:00 PM54 °FOvercast.5 mph61%30.06 "Hg31 mi
3:00 PM55 °FOvercast.7 mph59%30.04 "Hg28 mi
2:00 PM53 °FLight rain. Partly sunny.6 mph61%30.03 "Hg31 mi
1:00 PM52 °FLight rain. Partly sunny.10 mph67%30.01 "Hg19 mi
12:00 PM53 °FPartly sunny.9 mph58%30.00 "Hg31 mi
11:00 AM53 °FDrizzle. Overcast.7 mph59%30.01 "Hg31 mi
10:00 AM53 °FPartly sunny.7 mph59%30.00 "Hg31 mi
9:00 AM52 °FOvercast.7 mph59%29.99 "Hg31 mi
8:00 AM52 °FScattered clouds.6 mph61%29.97 "Hg31 mi
7:00 AM52 °FPassing clouds.6 mph61%29.98 "Hg31 mi
6:00 AM52 °FOvercast.8 mph61%29.98 "Hg31 mi
4:00 AM52 °FOvercast.7 mph62%29.98 "Hg31 mi
3:00 AM52 °FOvercast.9 mph65%29.98 "Hg31 mi
2:00 AM51 °FLight rain. Passing clouds.9 mph69%29.98 "Hg12 mi
Weather by CustomWeather, © 2015

See weather overviewHow to use our weather pages